Location: Unspecified
(38.7273°N, 77.0677°W)
Time: 15:37:46
(UTC-04:00)

AO-85 - Visible Passes

Search period start: 19 September 2021 00:00
Search period end: 29 September 2021 00:00
Orbit: 521 x 762 km, 64.8° (Epoch: 12 March)

Date Brightness Start Highest point End Pass type
(mag) Time Alt. Az. Time Alt. Az. Time Alt. Az.
19 Sep ? 21:13:42 10° NNE 21:14:36 10° NNE 21:14:36 10° NNE visible
19 Sep ? 22:51:10 10° NNW 22:52:10 15° NNW 22:52:10 15° NNW visible
20 Sep ? 21:36:01 10° N 21:38:14 17° NNE 21:38:14 17° NNE visible
20 Sep ? 23:15:30 10° NW 23:15:49 12° NW 23:15:49 12° NW visible
21 Sep ? 21:59:41 10° NNW 22:01:54 22° N 22:01:54 22° N visible
22 Sep ? 20:45:00 10° N 20:47:49 14° NE 20:48:02 14° NE visible
22 Sep ? 22:23:48 10° NNW 22:25:37 22° NNW 22:25:37 22° NNW visible
23 Sep ? 21:08:18 10° N 21:11:48 25° NNE 21:11:48 25° NNE visible
23 Sep ? 22:48:22 10° NW 22:49:23 15° NW 22:49:23 15° NW visible
24 Sep ? 19:54:40 10° NNE 19:55:46 11° NE 19:56:52 10° NE visible
24 Sep ? 21:32:13 10° NNW 21:35:37 36° N 21:35:37 36° N visible
25 Sep ? 20:17:03 10° N 20:20:50 19° NE 20:21:55 18° ENE visible
25 Sep ? 21:56:33 10° NW 21:59:30 33° NW 21:59:30 33° NW visible
26 Sep ? 20:40:44 10° NNW 20:45:38 37° NE 20:45:51 37° ENE visible
26 Sep ? 22:21:25 10° NW 22:23:28 20° WNW 22:23:28 20° WNW visible
27 Sep ? 19:26:00 10° N 19:28:52 14° NE 19:31:41 10° ENE visible
27 Sep ? 21:04:51 10° NNW 21:09:54 77° NNE 21:09:54 77° NNE visible
28 Sep ? 19:49:20 10° N 19:53:47 27° NE 19:56:25 18° E visible
28 Sep ? 21:29:25 10° NW 21:34:02 44° WSW 21:34:02 44° WSW visible
